Tracking 20712 objects as of 28-May-2020
HD Live streaming from Space Station
objects crossing your sky now

FENGYUN 1C DEB

Track FENGYUN 1C DEB now!
10-day predictions


NORAD ID: 35170
Int'l Code: 1999-025DNA
Perigee: 809.2 km
Apogee: 966.3 km
Inclination: 99.8 °
Period: 102.6 minutes
Semi major axis: 7258 km
RCS: 0.0097 m2 (small)
Launch date: May 10, 1999
Source: People's Republic of China (PRC)
Launch site: Taiyaun Space Center, China (TSC)

Note: This is SATELLITE DEBRIS
aabbcc
Your satellite tracking list
Your tracking list is empty




NASA's NSSDC Master Catalog

Two Line Element Set (TLE):
1 35170U 99025DNA 20143.93031075 +.00000180 +00000-0 +13868-3 0  9997
2 35170 099.8493 201.8110 0108180 083.0279 278.3175 14.03808962327578
Source of the keplerian elements: AFSPC